Cloud_Cover
100 100 100 100 100 100 100 100 100 100 100 100 100 100 100 100 100 100 100 100 100 100 100 100 100 100 100 100 100 100 100 39 83 99 100 100 100 100
100 100 100 100 100 100 100 100 100 100 100 100 100 100 100 100 100 100 100 100 100 100 100 59 100 100 100 100 100 100 100 39 92 100 100 100 100 100
100 100 100 100 100 100 100 100 100 100 100 100 100 100 100 100 100 100 100 100 100 100 21 100 100 100 92 100 100 100 87 99 100 100 100 100 100 100
100 100 100 100 100 100 100 100 100 100 100 100 100 100 100 100 100 100 100 81 48 100 100 100 100 100 100 87 100 53 5 100 100 100 97 100 100 100
100 100 100 100 100 100 100 100 100 100 100 100 100 100 100 100 100 100 100 100 100 100 100 100 100 82 100 98 36 9 5 5 5 5 5 18 97 100
100 100 100 100 100 100 100 100 100 100 100 100 100 100 100 100 100 100 100 100 100 100 99 100 100 100 58 86 100 8 5 0 5 5 38 100 100 99
100 100 100 100 100 100 100 100 100 100 100 100 100 100 100 100 100 100 100 100 100 100 100 100 82 22 70 86 9 3 2 5 15 55 100 100 100 100
100 100 100 100 100 100 100 100 100 100 100 66 13 99 100 100 100 100 100 100 100 100 100 100 100 60 6 5 5 4 5 70 100 100 100 100 100 100
100 100 100 100 100 100 100 100 100 100 95 11 43 82 98 100 100 100 100 100 94 89 66 100 100 100 15 5 5 6 5 81 100 99 100 100 100 100
100 100 100 100 100 100 100 100 100 100 100 67 56 86 100 100 100 99 94 87 90 100 94 91 100 100 40 10 27 53 23 100 100 100 100 100 100 100
100 100 100 100 100 100 100 100 100 98 93 100 100 100 100 100 100 96 100 100 100 99 99 100 100 100 56 11 91 52 98 100 100 100 100 100 100 100
100 100 100 100 100 100 100 100 100 100 99 100 96 98 100 100 98 100 100 100 100 100 100 100 100 97 68 56 22 94 100 100 100 100 100 100 100 100
100 100 100 100 100 100 100 100 100 79 78 100 98 100 100 100 100 100 100 100 100 100 100 100 100 94 100 100 65 85 100 100 100 87 99 100 100 100
100 100 100 100 100 100 100 100 100 93 78 100 100 100 100 100 100 100 100 100 100 100 100 100 100 92 100 100 100 100 97 100 98 90 100 100 100 100
100 100 100 100 100 100 100 100 100 100 99 100 100 100 100 100 100 100 100 100 100 100 100 100 93 70 100 100 100 100 95 100 100 100 100 100 100 100
100 100 100 100 100 100 100 100 100 99 100 100 100 99 100 100 100 100 100 100 100 61 100 100 94 46 100 100 100 99 100 100 96 99 100 100 100 100
100 100 100 100 100 100 100 97 100 100 64 56 99 86 97 98 100 100 100 100 100 97 63 100 76 91 91 90 96 100 100 100 94 100 100 100 100 100
100 100 100 100 100 100 100 92 55 100 53 98 98 88 100 100 100 100 100 100 88 49 96 100 100 100 100 96 94 100 98 100 100 100 100 100 100 100
100 100 100 100 100 100 100 100 100 99 100 64 78 94 100 100 100 100 100 100 97 44 61 100 99 100 100 100 86 93 99 100 95 100 100 100 100 100
100 100 100 100 100 100 100 100 100 100 100 100 100 100 100 100 100 100 100 100 100 70 72 100 78 100 100 99 100 100 98 100 100 100 100 100 100 100
100 100 100 100 100 100 100 84 89 85 84 75 100 100 100 100 100 100 100 100 100 93 89 100 99 100 100 100 91 92 100 100 100 100 100 100 100 100
100 100 100 100 100 100 100 100 100 100 100 69 100 100 100 100 100 100 100 100 100 97 100 100 100 100 100 100 100 100 100 100 100 100 100 100 100 100
100 100 100 100 100 100 100 100 100 98 100 100 100 100 100 100 100 100 100 100 100 100 100 89 100 100 100 100 100 100 100 84 100 100 100 100 100 100